York, PA

1:06 AM EST on January 21, 2018 (GMT -0500)
York

Weather History for KTHV - April, 2014

Change the Weather History Date:

Monday, April 14, 2014

  Actual Average Record
Temperature  
Mean Temperature 70 °F -  
Max Temperature 77 °F 0 °F 77 °F (2002)
Min Temperature 63 °F - 25 °F (2007)
Cooling Degree Days 5    
Growing Degree Days 20 (Base 50)    
Moisture  
Dew Point 53 °F    
Average Humidity 56    
Maximum Humidity 72    
Minimum Humidity 42    
Precipitation  
Precipitation 0.00 in - - ()
Sea Level Pressure  
Sea Level Pressure 29.87 in    
Wind  
Wind Speed 9 mph (South)    
Max Wind Speed 22 mph    
Max Gust Speed 34 mph    
Visibility 10 miles    
Events      
Averages and records for this station are not official NWS values.
T = Trace of Precipitation, MM = Missing Value Source: NWS Daily Summary

Daily Weather History Graph

Daily Weather History Graph

Search for Another Location

Airport or City:

Trip Planner

Search our weather history database for the weather conditions in past years. The results will help you decide how hot, cold, wet, or windy it might be!

Date:

Astronomy

Apr. 14, 2014 Rise Set
Actual Time 6:31 AM EDT 7:44 PM EDT
Civil Twilight 6:03 AM EDT 8:12 PM EDT
Nautical Twilight 5:29 AM EDT 8:46 PM EDT
Astronomical Twilight 4:55 AM EDT 9:21 PM EDT
Moon 7:21 PM EDT (4/14) 6:02 AM EDT (4/14)
Length of Visible Light 14h 09m
Length of Day
13h 13m
Full, 100% of the Moon is Illuminated
Apr 14
Full
Apr 15
Full
Apr 22
Last Quarter
Apr 29
New
May 6
First Quarter

Hourly Weather History & Observations

Time (EDT) Temp. Dew Point Humidity Pressure Visibility Wind Dir Wind Speed Gust Speed Precip Events Conditions
12:53 AM 64.9 °F 54.0 °F 68% 29.97 in 10.0 mi South 5.8 mph - N/A   Clear
1:53 AM 64.0 °F 54.0 °F 70% 29.95 in 10.0 mi SSE 5.8 mph - N/A   Clear
2:53 AM 63.0 °F 54.0 °F 72% 29.94 in 10.0 mi Variable 6.9 mph - N/A   Clear
3:53 AM 63.0 °F 54.0 °F 72% 29.93 in 10.0 mi Variable 3.5 mph - N/A   Clear
5:53 AM 63.0 °F 53.1 °F 70% 29.92 in 10.0 mi Variable 3.5 mph - N/A   Clear
6:53 AM 64.0 °F 53.1 °F 67% 29.93 in 10.0 mi Variable 4.6 mph - N/A   Clear
7:53 AM 66.0 °F 53.1 °F 63% 29.93 in 10.0 mi South 8.1 mph - N/A   Clear
8:53 AM 68.0 °F 54.0 °F 61% 29.92 in 10.0 mi SSW 11.5 mph 27.6 mph N/A   Clear
9:53 AM 70.0 °F 54.0 °F 57% 29.91 in 10.0 mi SSW 12.7 mph 23.0 mph N/A   Clear
10:53 AM 72.0 °F 55.0 °F 55% 29.93 in 10.0 mi South 16.1 mph 26.5 mph N/A   Partly Cloudy
11:53 AM 71.1 °F 55.0 °F 57% 29.92 in 10.0 mi South 21.9 mph 34.5 mph N/A   Partly Cloudy
12:53 PM 73.0 °F 55.0 °F 53% 29.88 in 10.0 mi SSW 18.4 mph 32.2 mph N/A   Partly Cloudy
1:53 PM 75.9 °F 55.0 °F 48% 29.87 in 10.0 mi SSW 15.0 mph 29.9 mph N/A   Scattered Clouds
2:53 PM 77.0 °F 53.1 °F 43% 29.86 in 10.0 mi South 12.7 mph 31.1 mph N/A   Partly Cloudy
3:53 PM 75.9 °F 54.0 °F 46% 29.83 in 10.0 mi South 12.7 mph 26.5 mph N/A   Scattered Clouds
4:53 PM 75.9 °F 51.1 °F 42% 29.82 in 10.0 mi SSW 15.0 mph 34.5 mph N/A   Partly Cloudy
5:53 PM 75.0 °F 51.1 °F 43% 29.81 in 10.0 mi SSW 16.1 mph 29.9 mph N/A   Clear
6:53 PM 73.9 °F 51.1 °F 45% 29.80 in 10.0 mi SSW 15.0 mph 27.6 mph N/A   Clear
7:53 PM 73.0 °F 51.1 °F 46% 29.80 in 10.0 mi South 9.2 mph 20.7 mph N/A   Clear
8:53 PM 72.0 °F 50.0 °F 46% 29.80 in 10.0 mi South 8.1 mph 18.4 mph N/A   Clear
9:53 PM 72.0 °F 50.0 °F 46% 29.80 in 10.0 mi South 9.2 mph 16.1 mph N/A   Mostly Cloudy
10:53 PM 69.1 °F 52.0 °F 54% 29.78 in 10.0 mi SSE 10.4 mph 19.6 mph N/A   Clear
11:53 PM 66.9 °F 54.0 °F 63% 29.78 in 10.0 mi South 5.8 mph - N/A   Overcast